User: anonymous   Login
Location: Dover
(39.1580°N, 75.5250°W)
Time: 09:39:11
(UTC-04:00)
Language:

SeaSat 1 - Orbit

View from above orbital plane
View from above orbital plane
View from above satellite
View from above satellite

Ground track
Ground track

The orbit data is extracted from the following two-line orbital elements,

1 10967U 78064A   17146.36612383 -.00000027 +00000-0 +32404-4 0  9996
2 10967 108.0071 253.8305 0002734 255.1962 104.8880 14.43644723043222
Epoch (UTC): 26 May 2017 08:47:13
Eccentricity: 0.0002734
inclination: 108.0071°
perigee height: 744 km
apogee height: 748 km
right ascension of ascending node: 253.8305°
argument of perigee: 255.1962°
revolutions per day: 14.43644723
mean anomaly at epoch: 104.8880°
orbit number at epoch: 4322

The dashed part of the orbit path shows where the satellite is in the earth's shadow,  

DLR